Погода в Жемтале

Россия / Кабардино-Балкарская Республика     43°16′58″N   43°39′23″E
темп.,
°C
ветер,
м/с
пор.,
м/с
влажн.,
%
обл.,
%
осадки,
мм/ч
давл.,
гПа
погр.,
м
14 апреля, ср
ср1400:00+4зюз11866 0.0 101917
03:00+3зюз3285100 0.0 101838
06:00+4ююз2183100 0.1 101921
09:00+9ююз1166100 0.3 1018327
12:00+10всв2272100 0.1 1017885
15:00+10всв226978 0.3 1017946
18:00+8в118294 0.9 101855
21:00+7юз228456 1.3 101944
15 апреля, чт
чт1500:00+4юз22710 0.0 101922
03:00+3юз22614 0.0 102022
06:00+3юз32580 0.0 102034
09:00+11св21455 0.0 1018569
12:00+15св324279 0.0 10161401
15:00+15св434568 0.0 10161530
18:00+12всв1261100 0.0 101762
21:00+9юз2267100 0.0 101828
16 апреля, пт
пт1600:00+8юз225997 0.0 101817
03:00+7юз326111 0.0 101826
06:00+7юз325520 0.0 101935
09:00+13всв23487 0.0 1017785
12:00+16в434463 0.0 10161571
15:00+17в444382 0.1 10151721
18:00+14в256260 0.2 1016192
21:00+9зюз227093 0.3 101827
17 апреля, сб
сб1700:00+9з1170100 0.0 101914
03:00+7с0181100 0.0 101913
06:00+7сз1292100 0.0 1021112
09:00+8всв1196100 0.8 1022231
12:00+6ссз1296100 2.1 1023294
15:00+7с1192100 2.3 1023365
18:00+6св1196100 0.1 1024124
21:00+6в1198100 0.2 102399
18 апреля, вс
вс1800:00+6в119898 0.0 1022122
03:00+6всв119893 0.0 102195
06:00+6зсз1197100 0.0 102171
09:00+9св229090 1.8 1020433
12:00+10всв2286100 0.1 1018575
15:00+11всв2283100 0.1 1017521
18:00+10в1289100 0.1 1018119
21:00+8зсз119563 0.8 101929